User: anonymous   Login
Location: Unspecified
(0.0000°N, 0.0000°E)
Time: 00:20:59
(UTC+00:00)
Language:

USA-167 - Orbit

View from above orbital plane
View from above orbital plane
View from above satellite
View from above satellite

Ground track
Ground track

The orbit data is extracted from the following two-line orbital elements,

1 27691U 03008A   16362.27561430 0.00000000  00000-0  00000-0 0    05
2 27691   4.3229  65.2890 0004647 238.5728 121.3600  1.00270000    06
Epoch (UTC): 27 December 2016 06:36:53
Eccentricity: 0.0004647
inclination: 4.3229°
perigee height: 35767 km
apogee height: 35806 km
right ascension of ascending node: 65.2890°
argument of perigee: 238.5728°
revolutions per day: 1.00270000
mean anomaly at epoch: 121.3600°
orbit number at epoch: 0

The dashed part of the orbit path shows where the satellite is in the earth's shadow,  

DLR